Weather History for Golovin, AK

Change the Weather History Date:

Saturday, February 16, 2013

  Actual Average Record
Temperature  
Mean Temperature -18 °F -  
Max Temperature -14 °F - - ()
Min Temperature -23 °F - - ()
Degree Days  
Heating Degree Days 84    
Moisture  
Dew Point -23 °F    
Average Humidity 78    
Maximum Humidity 100    
Minimum Humidity 53    
Precipitation  
Precipitation 0.00 in - - ()
Sea Level Pressure  
Sea Level Pressure 30.16 in    
Wind  
Wind Speed 9 mph (NW)    
Max Wind Speed 12 mph    
Max Gust Speed -    
Visibility 10 miles    
Events      
T = Trace of Precipitation, MM = Missing Value Source: NWS Daily Summary

Daily Weather History Graph

Daily Weather History Graph

Search for Another Location

Airport:

Trip Planner

Search our weather history database for the weather conditions in past years. The results will help you decide how hot, cold, wet, or windy it might be!

Date:

Astronomy

Feb. 16, 2013 Rise Set
Actual Time 9:44 AM AKST 6:29 PM AKST
Civil Twilight 8:52 AM AKST 7:21 PM AKST
Nautical Twilight 7:56 AM AKST 8:17 PM AKST
Astronomical Twilight 7:00 AM AKST 9:14 PM AKST
Moon 10:19 AM AKST 3:20 AM AKST
Length of Visible Light 10h 28m
Length of Day
8h 45m
Waxing Crescent, 41% of the Moon is Illuminated
Feb 16
Waxing Crescent
Feb 17
First Quarter
Feb 25
Full
Mar 4
Last Quarter
Mar 11
New

Hourly Weather History & Observations

Time (AKST) Temp. Windchill Dew Point Humidity Pressure Visibility Wind Dir Wind Speed Gust Speed Precip Events Conditions
12:16 AM -18.4 °F -39.1 °F - N/A% 30.05 in 10.0 mi WNW 10.4 mph - N/A   Scattered Clouds
12:36 AM -20.2 °F -38.8 °F - N/A% 30.06 in 10.0 mi NW 8.1 mph - N/A   Partly Cloudy
12:56 AM -20.2 °F -40.1 °F - N/A% 30.06 in 10.0 mi NW 9.2 mph - N/A   Scattered Clouds
1:16 AM -20.2 °F -41.3 °F - N/A% 30.07 in 10.0 mi WNW 10.4 mph - N/A   Overcast
1:36 AM -18.4 °F -40.2 °F - N/A% 30.07 in 10.0 mi NW 11.5 mph - N/A   Overcast
1:56 AM -20.2 °F -41.3 °F - N/A% 30.08 in 10.0 mi NW 10.4 mph - N/A   Overcast
2:16 AM -20.2 °F -40.1 °F - N/A% 30.08 in 10.0 mi NW 9.2 mph - N/A   Overcast
2:36 AM -20.2 °F -37.3 °F - N/A% 30.09 in 10.0 mi WNW 6.9 mph - N/A   Overcast
2:56 AM -20.2 °F -41.3 °F -27.4 °F 69% 30.09 in 10.0 mi NW 10.4 mph - N/A   Scattered Clouds
3:16 AM -20.2 °F -41.3 °F - N/A% 30.10 in 10.0 mi NW 10.4 mph - N/A   Clear
3:36 AM -20.2 °F -41.3 °F - N/A% 30.10 in 10.0 mi NW 10.4 mph - N/A   Clear
3:56 AM -18.4 °F -39.1 °F -18.4 °F 100% 30.10 in 10.0 mi NW 10.4 mph - N/A   Clear
4:16 AM -18.4 °F -39.1 °F - N/A% 30.10 in 10.0 mi NW 10.4 mph - N/A   Clear
4:36 AM -22.0 °F -44.7 °F - N/A% 30.11 in 10.0 mi NW 11.5 mph - N/A   Clear
4:56 AM -22.0 °F -44.7 °F - N/A% 30.12 in 10.0 mi NW 11.5 mph - N/A   Scattered Clouds
5:16 AM -22.0 °F -41.0 °F - N/A% 30.12 in 10.0 mi NNW 8.1 mph - N/A   Overcast
5:36 AM -18.4 °F -33.4 °F - N/A% 30.12 in 8.0 mi NNW 5.8 mph - N/A   Mostly Cloudy
5:56 AM -22.0 °F -39.4 °F - N/A% 30.13 in 10.0 mi NW 6.9 mph - N/A   Partly Cloudy
6:16 AM -23.8 °F -44.5 °F - N/A% 30.13 in 9.0 mi NW 9.2 mph - N/A   Clear
6:36 AM -23.8 °F -44.5 °F - N/A% 30.13 in 10.0 mi NW 9.2 mph - N/A   Partly Cloudy
6:56 AM -22.0 °F -43.6 °F - N/A% 30.13 in 10.0 mi NW 10.4 mph - N/A   Partly Cloudy
7:16 AM -23.8 °F -46.9 °F - N/A% 30.13 in 10.0 mi WNW 11.5 mph - N/A   Clear
7:36 AM -22.0 °F -44.7 °F - N/A% 30.13 in 10.0 mi NW 11.5 mph - N/A   Clear
7:56 AM -23.8 °F -45.8 °F - N/A% 30.13 in 7.0 mi WNW 10.4 mph - N/A   Clear
8:16 AM -23.8 °F -45.8 °F - N/A% 30.13 in 9.0 mi NW 10.4 mph - N/A   Clear
8:36 AM -23.8 °F -45.8 °F - N/A% 30.13 in 10.0 mi NW 10.4 mph - N/A   Clear
8:56 AM -23.8 °F -37.7 °F - N/A% 30.14 in 10.0 mi NW 4.6 mph - N/A   Clear
9:16 AM -22.0 °F -43.6 °F - N/A% 30.14 in 10.0 mi NW 10.4 mph - N/A   Clear
9:36 AM -22.0 °F -43.6 °F - N/A% 30.15 in 10.0 mi WNW 10.4 mph - N/A   Clear
9:56 AM -22.0 °F -42.3 °F -27.4 °F 76% 30.15 in 10.0 mi WNW 9.2 mph - N/A   Clear
10:16 AM -22.0 °F -42.3 °F - N/A% 30.15 in 10.0 mi NW 9.2 mph - N/A   Clear
10:36 AM -23.8 °F -39.8 °F - N/A% 30.17 in 10.0 mi NW 5.8 mph - N/A   Clear
10:56 AM -23.8 °F - - N/A% 30.17 in 5.0 mi Calm Calm - N/A   Clear
11:16 AM -23.8 °F -35.0 °F - N/A% 30.17 in 10.0 mi NW 3.5 mph - N/A   Clear
11:36 AM -23.8 °F -43.2 °F - N/A% 30.18 in 10.0 mi NW 8.1 mph - N/A   Clear
11:56 AM -23.8 °F -45.8 °F - N/A% 30.18 in 10.0 mi NW 10.4 mph - N/A   Clear
12:16 PM -23.8 °F -44.5 °F -23.8 °F 100% 30.19 in 7.0 mi NW 9.2 mph - N/A   Clear
12:36 PM -22.0 °F -42.3 °F - N/A% 30.19 in 10.0 mi NW 9.2 mph - N/A   Clear
12:56 PM -22.0 °F -43.6 °F -23.8 °F 91% 30.19 in 10.0 mi NW 10.4 mph - N/A   Clear
1:16 PM -20.2 °F -41.3 °F - N/A% 30.19 in 10.0 mi NW 10.4 mph - N/A   Clear
1:36 PM -18.4 °F -39.1 °F -20.2 °F 91% 30.20 in 10.0 mi NW 10.4 mph - N/A   Clear
1:56 PM -18.4 °F -40.2 °F - N/A% 30.20 in 10.0 mi NW 11.5 mph - N/A   Clear
2:16 PM -18.4 °F -37.9 °F - N/A% 30.20 in 10.0 mi NNW 9.2 mph - N/A   Clear
2:36 PM -18.4 °F -36.6 °F - N/A% 30.20 in 10.0 mi NW 8.1 mph - N/A   Clear
2:56 PM -16.6 °F -35.7 °F - N/A% 30.20 in 10.0 mi NW 9.2 mph - N/A   Clear
3:16 PM -16.6 °F -34.4 °F - N/A% 30.20 in 10.0 mi NW 8.1 mph - N/A   Clear
3:36 PM -14.8 °F -30.8 °F - N/A% 30.20 in 10.0 mi NW 6.9 mph - N/A   Clear
3:56 PM -16.6 °F -26.8 °F - N/A% 30.20 in 10.0 mi NNW 3.5 mph - N/A   Clear
4:16 PM -14.8 °F -29.1 °F - N/A% 30.19 in 10.0 mi NNW 5.8 mph - N/A   Clear
4:36 PM -14.8 °F -29.1 °F - N/A% 30.18 in 10.0 mi NW 5.8 mph - N/A   Clear
4:56 PM -16.6 °F -34.4 °F - N/A% 30.18 in 10.0 mi NW 8.1 mph - N/A   Clear
5:16 PM -16.6 °F -32.9 °F -29.2 °F 53% 30.18 in 10.0 mi NW 6.9 mph - N/A   Clear
5:36 PM -14.8 °F -32.2 °F -27.4 °F 53% 30.18 in 10.0 mi NW 8.1 mph - N/A   Clear
5:56 PM -16.6 °F -34.4 °F -29.2 °F 53% 30.18 in 10.0 mi NW 8.1 mph - N/A   Clear
6:16 PM -16.6 °F -35.7 °F -22.0 °F 76% 30.18 in 10.0 mi WNW 9.2 mph - N/A   Clear
6:36 PM -14.8 °F -32.2 °F -27.4 °F 53% 30.18 in 10.0 mi WNW 8.1 mph - N/A   Clear
6:56 PM -16.6 °F -32.9 °F -23.8 °F 70% 30.19 in 10.0 mi WNW 6.9 mph - N/A   Clear
7:16 PM -16.6 °F -32.9 °F -25.6 °F 64% 30.19 in 10.0 mi WNW 6.9 mph - N/A   Clear
7:36 PM -14.8 °F -32.2 °F -18.4 °F 84% 30.19 in 10.0 mi WNW 8.1 mph - N/A   Clear
7:56 PM -16.6 °F -35.7 °F - N/A% 30.19 in 10.0 mi WNW 9.2 mph - N/A   Clear
8:16 PM -16.6 °F -35.7 °F -16.6 °F 100% 30.19 in 10.0 mi NNW 9.2 mph - N/A   Clear
8:36 PM -16.6 °F -32.9 °F - N/A% 30.20 in 10.0 mi NW 6.9 mph - N/A   Clear
8:56 PM -16.6 °F -32.9 °F -18.4 °F 92% 30.20 in 10.0 mi NW 6.9 mph - N/A   Clear
9:16 PM -16.6 °F -34.4 °F - N/A% 30.20 in 10.0 mi WNW 8.1 mph - N/A   Clear
9:36 PM -18.4 °F -36.6 °F - N/A% 30.21 in 10.0 mi WNW 8.1 mph - N/A   Clear
9:56 PM -18.4 °F -36.6 °F -25.6 °F 70% 30.21 in 10.0 mi West 8.1 mph - N/A   Clear
10:16 PM -18.4 °F -36.6 °F - N/A% 30.22 in 10.0 mi WNW 8.1 mph - N/A   Clear
10:36 PM -16.6 °F -35.7 °F -16.6 °F 100% 30.22 in 10.0 mi WNW 9.2 mph - N/A   Clear
10:56 PM -16.6 °F -26.8 °F - N/A% 30.22 in 10.0 mi NW 3.5 mph - N/A   Clear
11:16 PM -18.4 °F -33.4 °F - N/A% 30.22 in 10.0 mi WNW 5.8 mph - N/A   Clear
11:36 PM -18.4 °F -31.4 °F - N/A% 30.22 in 10.0 mi NW 4.6 mph - N/A   Clear
11:56 PM -16.6 °F -31.3 °F - N/A% 30.23 in 10.0 mi West 5.8 mph - N/A   Clear